Location: Linz
(48.3300°N, 14.3000°E)
Time: 10:36:01
(UTC+01:00)

Envisat - Pass Details

Date: 16 November 2017
Orbit: 764 x 766 km, 98.2° (Epoch: 22 November)

Event Time Altitude Azimuth Distance (km) Brightness Sun altitude
Exits shadow 18:20:36 15° 23° (NNE) 2,006 4.9 -19.4°
Drops below altitude 10° 18:21:46 10° 13° (NNE) 2,313 5.3 -19.6°
Sets 18:24:35 0° 357° (N) 3,244 6.2 -20.1°
